GW4244 Weather Reports


time (UTC)temp
F
wind
direction
speed
knots
gust
knots
rain 1hr
in
rain 24hr
in
rain mn
in
humidity
%
barometer
mb
20260906190634 106 109 0.9 0.9 0.00 0.00 0.00 36 1011.5
20260906190130 105 165 0.0 0.9 0.00 0.00 0.00 36 1011.3
20260906185628 103 139 0.0 0.0 0.00 0.00 0.00 37 1011.6
20260906185128 101 209 1.7 2.6 0.00 0.00 0.00 38 1011.6
20260906184622 103 221 6.1 7.8 0.00 0.00 0.00 37 1011.4
20260906184118 104 227 1.7 1.7 0.00 0.00 0.00 37 1011.5
20260906183614 106 201 4.3 6.1 0.00 0.00 0.00 35 1011.7
20260906183109 104 140 0.9 1.7 0.00 0.00 0.00 37 1011.8
20260906182604 104 164 0.0 0.0 0.00 0.00 0.00 37 1011.9
20260906182101 103 149 0.0 0.0 0.00 0.00 0.00 39 1011.8
20260906181555 103 139 0.0 0.0 0.00 0.00 0.00 40 1012.0
20260906181046 103 136 0.0 0.0 0.00 0.00 0.00 38 1012.0
20260906180545 103 147 0.0 0.9 0.00 0.00 0.00 39 1012.3
20260906180044 103 67 0.9 0.9 0.00 0.00 0.00 39 1012.3
20260906175543 102 265 1.7 1.7 0.00 0.00 0.00 39 1012.5
20260906175038 102 35 2.6 2.6 0.00 0.00 0.00 39 1012.4
20260906174537 102 138 0.9 1.7 0.00 0.00 0.00 41 1012.7
20260906174032 102 213 1.7 2.6 0.00 0.00 0.00 40 1012.7
20260906173526 101 219 0.9 0.9 0.00 0.00 0.00 42 1012.9
20260906173023 102 219 1.7 1.7 0.00 0.00 0.00 41 1013.0
20260906172517 102 128 0.9 0.9 0.00 0.00 0.00 41 1013.2
20260906172012 102 162 0.0 0.0 0.00 0.00 0.00 43 1013.2
20260906171508 101 141 0.9 1.7 0.00 0.00 0.00 41 1013.2
20260906171003 101 49 0.0 0.0 0.00 0.00 0.00 40 1013.5
20260906170459 100 197 0.9 1.7 0.00 0.00 0.00 40 1013.3
20260906165956 100 148 0.0 0.9 0.00 0.00 0.00 41 1013.5
20260906165454 100 86 0.9 1.7 0.00 0.00 0.00 42 1013.7
20260906164949 99 214 1.7 1.7 0.00 0.00 0.00 43 1013.5
20260906164448 99 169 1.7 1.7 0.00 0.00 0.00 46 1013.5
20260906163945 100 212 0.9 1.7 0.00 0.00 0.00 44 1013.6
20260906163440 100 81 0.9 0.9 0.00 0.00 0.00 45 1013.5
20260906162938 99 140 0.9 0.9 0.00 0.00 0.00 46 1013.7
20260906162437 99 196 0.9 0.9 0.00 0.00 0.00 46 1013.8
20260906161932 98 192 1.7 1.7 0.00 0.00 0.00 47 1013.8
20260906161431 100 181 0.9 1.7 0.00 0.00 0.00 45 1013.6
20260906160925 99 147 0.0 0.0 0.00 0.00 0.00 48 1013.9
20260906160424 99 50 1.7 1.7 0.00 0.00 0.00 46 1013.8
20260906155922 98 148 0.0 0.0 0.00 0.00 0.00 48 1013.9
20260906155416 96 133 0.0 0.0 0.00 0.00 0.00 49 1013.8
20260906154913 97 191 0.9 1.7 0.00 0.00 0.00 52 1014.0
20260906154407 95 168 0.0 0.9 0.00 0.00 0.00 54 1014.0
20260906153906 95 332 1.7 2.6 0.00 0.00 0.00 54 1013.8
20260906153359 95 158 0.0 0.0 0.00 0.00 0.00 56 1013.9
20260906152855 95 108 1.7 1.7 0.00 0.00 0.00 56 1013.7
20260906152354 94 200 0.9 0.9 0.00 0.00 0.00 56 1014.0
20260906151854 93 138 0.0 0.0 0.00 0.00 0.00 58 1013.6
20260906151349 94 147 0.9 0.9 0.00 0.00 0.00 57 1013.9
20260906150846 94 212 1.7 1.7 0.00 0.00 0.00 57 1013.7
20260906150341 94 159 0.0 0.0 0.00 0.00 0.00 57 1013.8
20260906145840 93 149 0.0 0.0 0.00 0.00 0.00 59 1013.8
20260906145339 92 134 0.0 0.0 0.00 0.00 0.00 61 1013.7
20260906144834 91 147 0.0 0.0 0.00 0.00 0.00 61 1013.6
20260906144328 90 170 0.0 0.9 0.00 0.00 0.00 63 1013.7
20260906143823 89 153 0.0 0.0 0.00 0.00 0.00 63 1013.8
20260906143319 88 213 1.7 1.7 0.00 0.00 0.00 65 1013.6
20260906142815 91 141 0.0 0.0 0.00 0.00 0.00 62 1013.8
20260906142310 88 120 0.0 0.0 0.00 0.00 0.00 66 1013.9
20260906141809 88 130 0.0 0.0 0.00 0.00 0.00 67 1013.9
20260906141303 88 141 0.0 0.0 0.00 0.00 0.00 67 1013.7
20260906140802 87 132 0.0 0.0 0.00 0.00 0.00 69 1013.8
20260906140257 86 118 0.0 0.9 0.00 0.00 0.00 69 1013.9
20260906135755 85 202 2.6 2.6 0.00 0.00 0.00 71 1013.9
20260906135250 84 206 2.6 3.5 0.00 0.00 0.00 71 1013.8
20260906134746 84 163 0.9 0.9 0.00 0.00 0.00 72 1013.5
20260906134241 85 173 0.9 0.9 0.00 0.00 0.00 72 1013.5
20260906133736 84 168 0.9 0.9 0.00 0.00 0.00 72 1013.5
20260906133232 84 202 0.9 1.7 0.00 0.00 0.00 73 1013.7
20260906132727 83 133 0.0 0.0 0.00 0.00 0.00 76 1013.6
20260906132222 81 172 0.9 1.7 0.00 0.00 0.00 78 1013.5
20260906131718 80 186 0.9 1.7 0.00 0.00 0.00 79 1013.7
20260906131212 79 185 0.9 0.9 0.00 0.00 0.00 81 1013.6
20260906130708 79 163 0.9 0.9 0.00 0.00 0.00 81 1013.4
20260906130203 78 177 0.9 0.9 0.00 0.00 0.00 83 1013.4
20260906125702 77 175 0.0 0.0 0.00 0.00 0.00 86 1013.3
20260906125200 75 171 0.0 0.0 0.00 0.00 0.00 89 1013.3
20260906124655 74 159 0.0 0.0 0.00 0.00 0.00 92 1013.2
20260906124151 74 137 0.0 0.0 0.00 0.00 0.00 94 1013.2
20260906123649 74 139 0.0 0.0 0.00 0.00 0.00 94 1013.2
20260906123145 73 143 0.0 0.0 0.00 0.00 0.00 94 1013.2
20260906122644 73 143 0.0 0.0 0.00 0.00 0.00 94 1013.2
20260906122140 73 143 0.0 0.0 0.00 0.00 0.00 94 1013.2
20260906121636 73 151 0.0 0.0 0.00 0.00 0.00 94 1012.7
20260906121132 73 145 0.0 0.0 0.00 0.00 0.00 94 1013.1
20260906120627 73 158 0.0 0.0 0.00 0.00 0.00 94 1013.0
20260906120125 73 157 0.0 0.0 0.00 0.00 0.00 94 1013.0
20260906115624 73 135 0.0 0.0 0.00 0.00 0.00 93 1012.6
20260906115120 73 135 0.0 0.0 0.00 0.00 0.00 93 1012.6
20260906114613 74 135 0.0 0.0 0.00 0.00 0.00 93 1012.9
20260906114108 73 135 0.0 0.0 0.00 0.00 0.00 93 1012.5
20260906113608 74 135 0.0 0.0 0.00 0.00 0.00 93 1012.6
20260906113103 74 141 0.0 0.0 0.00 0.00 0.00 93 1012.4
20260906112603 74 140 0.0 0.0 0.00 0.00 0.00 93 1012.6
20260906112100 74 140 0.0 0.0 0.00 0.00 0.00 93 1012.7
20260906111559 74 140 0.0 0.0 0.00 0.00 0.00 92 1012.6
20260906111055 74 140 0.0 0.0 0.00 0.00 0.00 92 1012.7
20260906110554 74 140 0.0 0.0 0.00 0.00 0.00 92 1012.5
20260906110053 74 140 0.0 0.0 0.00 0.00 0.00 92 1012.4
20260906105548 74 146 0.0 0.0 0.00 0.00 0.00 92 1012.5
20260906105044 74 152 0.0 0.0 0.00 0.00 0.00 91 1012.6
20260906104543 74 123 0.0 0.0 0.00 0.00 0.00 92 1012.5
20260906104037 74 123 0.0 0.0 0.00 0.00 0.00 92 1012.6
20260906103536 74 117 0.0 0.0 0.00 0.00 0.00 93 1012.4
20260906103031 74 141 0.0 0.0 0.00 0.00 0.00 93 1012.5
20260906102526 74 148 0.0 0.0 0.00 0.00 0.00 92 1012.5
20260906102021 74 159 0.0 0.0 0.00 0.00 0.00 92 1012.4
20260906101515 74 159 0.0 0.0 0.00 0.00 0.00 92 1012.3
20260906101010 74 159 0.0 0.0 0.00 0.00 0.00 91 1012.4
20260906100506 75 159 0.0 0.0 0.00 0.00 0.00 91 1012.4
20260906100006 75 183 0.0 0.0 0.00 0.00 0.00 91 1012.5
20260906095500 75 159 0.0 0.0 0.00 0.00 0.00 90 1012.4
20260906094956 75 171 0.0 0.0 0.00 0.00 0.00 90 1012.3
20260906094454 75 152 0.0 0.0 0.00 0.00 0.00 89 1012.3
20260906093951 76 141 0.0 0.0 0.00 0.00 0.00 89 1012.3
20260906093447 75 125 0.0 0.0 0.00 0.00 0.00 89 1012.0
20260906092942 75 106 0.0 0.0 0.00 0.00 0.00 90 1012.1
20260906092441 75 110 0.0 0.0 0.00 0.00 0.00 90 1011.9
20260906091936 75 146 0.0 0.0 0.00 0.00 0.00 90 1012.0
20260906091432 75 146 0.0 0.0 0.00 0.00 0.00 90 1012.2
20260906090929 75 160 0.0 0.0 0.00 0.00 0.00 90 1012.3
20260906090424 75 195 0.9 1.7 0.00 0.00 0.00 89 1012.1
20260906085918 75 141 0.0 0.0 0.00 0.00 0.00 89 1011.9
20260906085417 75 141 0.0 0.0 0.00 0.00 0.00 89 1011.9
20260906084917 76 140 0.0 0.0 0.00 0.00 0.00 88 1011.9
20260906084412 76 153 0.0 0.0 0.00 0.00 0.00 87 1011.9
20260906083911 77 146 0.0 0.0 0.00 0.00 0.00 86 1011.8
20260906083407 77 160 0.0 0.9 0.00 0.00 0.00 85 1011.6
20260906082906 76 160 0.0 0.9 0.00 0.00 0.00 86 1011.8
20260906082401 76 121 0.0 0.0 0.00 0.00 0.00 85 1011.7
20260906081857 76 114 0.0 0.0 0.00 0.00 0.00 86 1011.7
20260906081353 76 114 0.0 0.0 0.00 0.00 0.00 87 1011.5
20260906080849 76 101 0.0 0.0 0.00 0.00 0.00 88 1011.5
20260906080345 76 136 0.0 0.0 0.00 0.00 0.00 88 1011.5
20260906075844 76 136 0.0 0.0 0.00 0.00 0.00 88 1011.4
20260906075339 76 136 0.0 0.0 0.00 0.00 0.00 88 1011.6
20260906074835 76 136 0.0 0.0 0.00 0.00 0.00 87 1011.4
20260906074334 77 134 0.0 0.0 0.00 0.00 0.00 87 1011.5
20260906073833 77 139 0.0 0.0 0.00 0.00 0.00 86 1011.5
20260906073328 77 146 0.0 0.0 0.00 0.00 0.00 85 1011.7
20260906072825 77 146 0.0 0.0 0.00 0.00 0.00 85 1011.7
20260906072320 78 146 0.0 0.0 0.00 0.00 0.00 84 1011.6
20260906071816 78 146 0.0 0.0 0.00 0.00 0.00 84 1011.6
20260906071315 78 130 0.0 0.0 0.00 0.00 0.00 84 1011.6
20260906070812 78 129 0.0 0.0 0.00 0.00 0.00 84 1011.7
20260906070308 78 122 0.0 0.0 0.00 0.00 0.00 83 1011.8
20260906065808 78 125 0.0 0.0 0.00 0.00 0.00 84 1011.6
20260906065305 78 128 0.0 0.0 0.00 0.00 0.00 85 1011.5
20260906064758 78 145 0.0 0.0 0.00 0.00 0.00 85 1011.7
20260906064254 78 145 0.0 0.0 0.00 0.00 0.00 84 1011.8
20260906063749 78 145 0.0 0.0 0.00 0.00 0.00 84 1011.5
20260906063244 78 145 0.0 0.0 0.00 0.00 0.00 83 1011.6
20260906062739 79 159 0.9 0.9 0.00 0.00 0.00 82 1011.7
20260906062238 79 146 0.0 0.0 0.00 0.00 0.00 82 1011.6
20260906061734 80 209 1.7 1.7 0.00 0.00 0.00 80 1011.5
20260906061231 80 140 0.0 0.0 0.00 0.00 0.00 78 1011.7
20260906060726 81 143 0.0 0.0 0.00 0.00 0.00 77 1011.8
20260906060224 81 134 0.0 0.0 0.00 0.00 0.00 76 1011.7
20260906055719 80 98 0.0 0.0 0.00 0.00 0.00 77 1011.7
20260906055214 81 141 0.0 0.0 0.00 0.00 0.00 77 1011.7
20260906054710 81 125 0.0 0.0 0.00 0.00 0.00 76 1011.7
20260906054210 81 125 0.0 0.0 0.00 0.00 0.00 76 1011.9
20260906053707 81 109 0.0 0.0 0.00 0.00 0.00 77 1011.7
20260906053201 81 163 0.0 0.0 0.00 0.00 0.00 77 1011.8
20260906052656 80 130 0.0 0.0 0.00 0.00 0.00 78 1011.7
20260906052153 81 123 0.0 0.0 0.00 0.00 0.00 78 1011.9
20260906051650 81 232 2.6 3.5 0.00 0.00 0.00 81 1011.7
20260906051149 82 115 0.0 0.0 0.00 0.00 0.00 75 1011.6
20260906050644 81 104 0.0 0.0 0.00 0.00 0.00 76 1011.5
20260906050139 81 99 0.0 0.0 0.00 0.00 0.00 78 1011.4
20260906045638 80 132 0.0 0.0 0.00 0.00 0.00 81 1011.4
20260906045133 80 157 0.0 0.0 0.00 0.00 0.00 80 1011.5
20260906044629 81 131 0.0 0.0 0.00 0.00 0.00 78 1011.5
20260906044124 82 152 0.0 0.0 0.00 0.00 0.00 76 1011.5
20260906043621 82 130 0.0 0.0 0.00 0.00 0.00 76 1011.4
20260906043116 82 118 0.0 0.0 0.00 0.00 0.00 76 1011.7
20260906042615 81 125 0.0 0.0 0.00 0.00 0.00 76 1011.4
20260906042109 81 125 0.0 0.0 0.00 0.00 0.00 76 1011.5
20260906041606 81 127 0.0 0.0 0.00 0.00 0.00 77 1011.4
20260906041100 81 204 1.7 1.7 0.00 0.00 0.00 76 1011.5
20260906040555 81 126 0.0 0.0 0.00 0.00 0.00 76 1011.2
20260906040046 81 142 0.0 0.0 0.00 0.00 0.00 78 1011.4
20260906035541 82 130 0.0 0.0 0.00 0.00 0.00 78 1011.5
20260906035036 82 187 1.7 2.6 0.00 0.00 0.00 79 1011.4
20260906034536 82 141 0.0 0.0 0.00 0.00 0.00 78 1011.3
20260906034031 82 177 0.9 0.9 0.00 0.00 0.00 77 1011.3
20260906033526 82 165 0.0 0.0 0.00 0.00 0.00 74 1011.1
20260906033021 82 128 0.0 0.0 0.00 0.00 0.00 75 1011.1
20260906032518 82 128 0.0 0.0 0.00 0.00 0.00 76 1011.1
20260906032018 82 128 0.0 0.0 0.00 0.00 0.00 75 1011.2
20260906031514 82 128 0.0 0.0 0.00 0.00 0.00 76 1011.3
20260906031009 82 128 0.0 0.0 0.00 0.00 0.00 76 1011.1
20260906030503 83 133 0.0 0.0 0.00 0.00 0.00 76 1011.4
20260906025958 83 145 0.0 0.0 0.00 0.00 0.00 76 1011.2
20260906025457 83 143 0.0 0.0 0.00 0.00 0.00 74 1011.1
20260906024955 84 143 0.0 0.0 0.00 0.00 0.00 74 1011.2
20260906024450 84 144 0.0 0.0 0.00 0.00 0.00 74 1011.0
20260906023944 84 130 0.0 0.0 0.00 0.00 0.00 72 1010.9
20260906023441 84 130 0.0 0.0 0.00 0.00 0.00 70 1011.1
20260906022936 85 130 0.0 0.0 0.00 0.00 0.00 70 1011.0
20260906022432 85 122 0.0 0.0 0.00 0.00 0.00 70 1010.8
20260906021927 85 119 0.0 0.0 0.00 0.00 0.00 70 1010.8
20260906021426 86 119 0.0 0.0 0.00 0.00 0.00 70 1010.8
20260906020920 86 119 0.0 0.0 0.00 0.00 0.00 70 1010.7
20260906020415 85 119 0.0 0.0 0.00 0.00 0.00 70 1010.7
20260906015909 84 119 0.0 0.0 0.00 0.00 0.00 71 1010.4
20260906015409 85 119 0.0 0.0 0.00 0.00 0.00 72 1010.6
20260906014909 85 119 0.0 0.0 0.00 0.00 0.00 72 1010.4
20260906014408 85 119 0.0 0.0 0.00 0.00 0.00 72 1010.5
20260906013905 86 125 0.0 0.0 0.00 0.00 0.00 70 1010.3
20260906013400 86 159 0.0 0.9 0.00 0.00 0.00 66 1010.3
20260906012856 86 137 0.0 0.0 0.00 0.00 0.00 66 1010.3
20260906012350 86 137 0.0 0.0 0.00 0.00 0.00 66 1010.1
20260906011850 87 138 0.0 0.0 0.00 0.00 0.00 65 1010.0
20260906011345 87 138 0.0 0.0 0.00 0.00 0.00 65 1010.0
20260906010841 88 138 0.0 0.0 0.00 0.00 0.00 63 1009.9
20260906010337 88 141 0.0 0.0 0.00 0.00 0.00 63 1010.0
20260906005832 89 137 0.0 0.0 0.00 0.00 0.00 62 1009.9
20260906005331 90 138 0.0 0.0 0.00 0.00 0.00 60 1009.8
20260906004830 90 138 0.0 0.0 0.00 0.00 0.00 59 1009.9
20260906004330 91 138 0.0 0.0 0.00 0.00 0.00 57 1009.8
20260906003825 92 138 0.0 0.0 0.00 0.00 0.00 56 1009.8
20260906003321 93 137 0.0 0.0 0.00 0.00 0.00 55 1009.8
20260906002816 94 137 0.0 0.0 0.00 0.00 0.00 53 1009.9
20260906002315 95 133 0.0 0.0 0.00 0.00 0.00 51 1009.8
20260906001811 95 134 0.0 0.0 0.00 0.00 0.00 49 1009.8
20260906001306 95 136 0.0 0.0 0.00 0.00 0.00 50 1009.7
20260906000801 96 142 0.0 0.0 0.00 0.00 0.00 47 1009.8
20260906000256 96 138 0.0 0.0 0.00 0.00 0.00 46 1009.7
20260905235751 97 144 0.0 0.0 0.00 0.00 0.00 45 1009.7
20260905235250 97 165 0.0 0.9 0.00 0.00 0.00 44 1009.7
20260905234746 98 143 0.0 0.0 0.00 0.00 0.00 42 1009.7
20260905234241 98 120 0.0 0.0 0.00 0.00 0.00 44 1009.7
20260905233737 98 131 0.0 0.0 0.00 0.00 0.00 42 1009.9
20260905233236 99 160 0.9 0.9 0.00 0.00 0.00 42 1009.9
20260905232736 98 119 0.0 0.0 0.00 0.00 0.00 43 1009.8
20260905232232 99 137 0.0 0.0 0.00 0.00 0.00 42 1009.7
20260905231727 99 137 0.0 0.9 0.00 0.00 0.00 44 1009.7
20260905231223 99 150 0.0 0.0 0.00 0.00 0.00 41 1009.6
20260905230719 99 192 1.7 1.7 0.00 0.00 0.00 40 1009.6
20260905230216 100 138 0.0 0.0 0.00 0.00 0.00 40 1009.6
20260905225716 100 193 0.9 1.7 0.00 0.00 0.00 40 1009.7
20260905225212 100 128 0.0 0.0 0.00 0.00 0.00 40 1009.7
20260905224710 100 126 0.0 0.9 0.00 0.00 0.00 40 1009.8
20260905224206 100 155 0.0 0.0 0.00 0.00 0.00 40 1009.6
20260905223702 100 131 0.0 0.9 0.00 0.00 0.00 39 1009.8
20260905223159 100 163 0.9 0.9 0.00 0.00 0.00 41 1009.8
20260905222654 101 148 1.7 1.7 0.00 0.00 0.00 40 1009.8
20260905222154 101 203 1.7 1.7 0.00 0.00 0.00 39 1009.8
20260905221649 101 109 0.0 0.9 0.00 0.00 0.00 40 1009.7
20260905221146 101 189 0.9 1.7 0.00 0.00 0.00 40 1009.8
20260905220641 102 209 1.7 1.7 0.00 0.00 0.00 39 1009.8
20260905220137 102 204 0.9 1.7 0.00 0.00 0.00 39 1009.8
20260905215637 103 155 0.0 0.9 0.00 0.00 0.00 39 1010.0
20260905215132 103 177 1.7 1.7 0.00 0.00 0.00 38 1010.0
20260905214628 103 172 0.0 0.9 0.00 0.00 0.00 37 1010.0
20260905214128 104 183 1.7 1.7 0.00 0.00 0.00 37 1010.2
20260905213624 104 126 0.0 0.0 0.00 0.00 0.00 38 1010.2
20260905213119 104 134 0.0 0.0 0.00 0.00 0.00 38 1010.2
20260905212614 103 134 0.0 0.0 0.00 0.00 0.00 38 1010.3
20260905212108 103 137 0.0 0.0 0.00 0.00 0.00 40 1010.3
20260905211604 103 154 0.0 0.0 0.00 0.00 0.00 39 1010.3
20260905211059 103 334 1.7 2.6 0.00 0.00 0.00 38 1010.4
20260905210555 104 171 1.7 1.7 0.00 0.00 0.00 38 1010.6
20260905210050 103 163 0.0 0.0 0.00 0.00 0.00 39 1010.7
20260905205549 103 105 0.0 0.0 0.00 0.00 0.00 39 1010.8
20260905205048 102 295 3.5 3.5 0.00 0.00 0.00 38 1010.7
20260905204543 103 313 3.5 3.5 0.00 0.00 0.00 38 1010.8
20260905204038 101 221 2.6 5.2 0.00 0.00 0.00 40 1010.9
20260905203538 102 223 2.6 3.5 0.00 0.00 0.00 40 1011.1
20260905203033 102 215 3.5 3.5 0.00 0.00 0.00 40 1011.0
20260905202528 103 219 3.5 3.5 0.00 0.00 0.00 38 1011.2
20260905202024 102 107 0.0 0.0 0.00 0.00 0.00 41 1011.2
20260905201520 99 206 2.6 2.6 0.00 0.00 0.00 43 1011.4
20260905201019 98 229 3.5 3.5 0.00 0.00 0.00 43 1011.5
20260905200515 99 134 0.0 0.0 0.00 0.00 0.00 42 1011.6
20260905200014 101 216 3.5 5.2 0.00 0.00 0.00 41 1011.4
20260905195508 101 96 0.9 0.9 0.00 0.00 0.00 40 1011.8
20260905195004 101 229 2.6 2.6 0.00 0.00 0.00 41 1011.8
20260905194503 102 220 3.5 5.2 0.00 0.00 0.00 40 1011.8
20260905193957 101 194 0.9 1.7 0.00 0.00 0.00 42 1011.9
20260905193452 102 191 1.7 1.7 0.00 0.00 0.00 41 1011.9
20260905192947 102 217 3.5 3.5 0.00 0.00 0.00 39 1012.0
20260905192442 102 88 1.7 2.6 0.00 0.00 0.00 43 1012.2
20260905191938 102 165 2.6 2.6 0.00 0.00 0.00 40 1012.2
20260905191437 99 243 1.7 1.7 0.00 0.00 0.00 42 1012.2